Location: Aalen
(48.8330°N, 10.1000°E)
Time: 16:14:42
(UTC+02:00)

UWE-3 - Pass Details

Date: 04 April 2023
Orbit: 576 x 669 km, 97.7° (Epoch: 02 June)

Event Time Altitude Azimuth Distance (km) Brightness Sun altitude
Rises 04:27:47 0° 13° (NNE) 2,973 ? -22.3°
Reaches altitude 10° 04:30:02 10° 13° (NNE) 2,043 ? -22.1°
Maximum altitude 04:34:29 87° 284° (WNW) 635 ? -21.5°
Enters shadow 04:35:23 56° 200° (SSW) 743 ? -21.4°
